Stündliche Wetter Kyzylsengir

Heute, 8 Mai, Samstag

Zeit Temperatur Niederschläge Wind Luftdruck Luftfeuchtigkeit
00:00 +19°C° 0 mm 2 m/S 709 mmHg 63%
01:00 +19°C° 0 mm 2 m/S 709 mmHg 61%
02:00 +19°C° 0 mm 2 m/S 709 mmHg 60%
03:00 +19°C° 0 mm 2 m/S 709 mmHg 60%
04:00 +19°C° 0 mm 2 m/S 709 mmHg 59%
05:00 +18°C° 0 mm 2 m/S 709 mmHg 59%
06:00 +20°C° 0 mm 2 m/S 709 mmHg 56%
07:00 +23°C° 0 mm 2 m/S 710 mmHg 54%
08:00 +24°C° 0 mm 1 m/S 710 mmHg 52%
09:00 +26°C° 0 mm 1 m/S 710 mmHg 47%
10:00 +27°C° 0 mm 1 m/S 710 mmHg 42%
11:00 +28°C° 0 mm 1 m/S 710 mmHg 36%
12:00 +29°C° 0 mm 2 m/S 710 mmHg 36%
13:00 +29°C° 0 mm 2 m/S 710 mmHg 36%
14:00 +30°C° 0 mm 2 m/S 710 mmHg 35%
15:00 +29°C° 0 mm 3 m/S 709 mmHg 38%
16:00 +29°C° 0 mm 3 m/S 709 mmHg 40%
17:00 +29°C° 0 mm 3 m/S 709 mmHg 42%
18:00 +27°C° 0 mm 3 m/S 709 mmHg 48%
19:00 +25°C° 0 mm 3 m/S 708 mmHg 53%
20:00 +22°C° 0 mm 3 m/S 708 mmHg 59%
21:00 +21°C° 0 mm 3 m/S 708 mmHg 58%
22:00 +21°C° 0 mm 3 m/S 708 mmHg 58%
23:00 +20°C° 0 mm 3 m/S 708 mmHg 58%

Morgen, 9 Mai, Sonntag

Zeit Temperatur Niederschläge Wind Luftdruck Luftfeuchtigkeit
00:00 +20°C° 0 mm 3 m/S 707 mmHg 56%
01:00 +20°C° 0 mm 3 m/S 707 mmHg 54%
02:00 +20°C° 0 mm 3 m/S 706 mmHg 52%
03:00 +20°C° 0 mm 2 m/S 706 mmHg 52%
04:00 +20°C° 0 mm 2 m/S 706 mmHg 52%
05:00 +20°C° 0 mm 2 m/S 706 mmHg 51%
06:00 +20°C° 0 mm 2 m/S 707 mmHg 54%
07:00 +21°C° 0 mm 3 m/S 708 mmHg 56%
08:00 +22°C° 0 mm 3 m/S 708 mmHg 59%
09:00 +22°C° 0.2 mm 3 m/S 708 mmHg 59%
10:00 +22°C° 0.2 mm 3 m/S 709 mmHg 60%
11:00 +22°C° 0.2 mm 3 m/S 709 mmHg 61%
12:00 +24°C° 0.2 mm 3 m/S 709 mmHg 58%
13:00 +25°C° 0.2 mm 3 m/S 709 mmHg 56%
14:00 +26°C° 0.2 mm 2 m/S 708 mmHg 54%
15:00 +26°C° 0.1 mm 3 m/S 708 mmHg 55%
16:00 +25°C° 0.1 mm 4 m/S 708 mmHg 57%
17:00 +25°C° 0.1 mm 4 m/S 708 mmHg 59%
18:00 +22°C° 0.1 mm 4 m/S 708 mmHg 64%
19:00 +21°C° 0.1 mm 3 m/S 708 mmHg 69%
20:00 +19°C° 0.1 mm 2 m/S 708 mmHg 73%
21:00 +19°C° 0.1 mm 2 m/S 708 mmHg 75%
22:00 +19°C° 0.1 mm 2 m/S 708 mmHg 76%
23:00 +19°C° 0.1 mm 1 m/S 708 mmHg 77%

übermorgen, 10 Mai, Montag

Zeit Temperatur Niederschläge Wind Luftdruck Luftfeuchtigkeit
00:00 +18°C° 0 mm 2 m/S 707 mmHg 77%
01:00 +18°C° 0 mm 2 m/S 707 mmHg 77%
02:00 +18°C° 0 mm 3 m/S 707 mmHg 76%
03:00 +17°C° 0 mm 3 m/S 706 mmHg 75%
04:00 +17°C° 0 mm 3 m/S 706 mmHg 73%
05:00 +17°C° 0 mm 3 m/S 706 mmHg 72%
06:00 +18°C° 0 mm 3 m/S 706 mmHg 68%
07:00 +20°C° 0 mm 3 m/S 707 mmHg 63%
08:00 +21°C° 0 mm 3 m/S 707 mmHg 59%
09:00 +22°C° 0 mm 3 m/S 707 mmHg 55%
10:00 +23°C° 0 mm 4 m/S 707 mmHg 52%
11:00 +25°C° 0 mm 4 m/S 707 mmHg 49%
12:00 +25°C° 0.1 mm 5 m/S 707 mmHg 48%
13:00 +26°C° 0.1 mm 5 m/S 707 mmHg 47%
14:00 +26°C° 0.1 mm 5 m/S 707 mmHg 46%
15:00 +25°C° 0 mm 5 m/S 706 mmHg 48%
16:00 +23°C° 0 mm 5 m/S 706 mmHg 51%
17:00 +23°C° 0 mm 4 m/S 706 mmHg 53%
18:00 +21°C° 0.1 mm 4 m/S 706 mmHg 55%
19:00 +20°C° 0.1 mm 3 m/S 706 mmHg 57%
20:00 +19°C° 0.1 mm 2 m/S 707 mmHg 59%
21:00 +18°C° 0 mm 2 m/S 706 mmHg 60%
22:00 +18°C° 0 mm 2 m/S 706 mmHg 61%
23:00 +18°C° 0 mm 1 m/S 706 mmHg 62%

11 Mai, Dienstag

Zeit Temperatur Niederschläge Wind Luftdruck Luftfeuchtigkeit
00:00 +18°C° 0 mm 1 m/S 706 mmHg 65%
01:00 +16°C° 0 mm 1 m/S 706 mmHg 68%
02:00 +16°C° 0 mm 2 m/S 706 mmHg 71%
03:00 +15°C° 0 mm 2 m/S 706 mmHg 71%
04:00 +15°C° 0 mm 2 m/S 707 mmHg 71%
05:00 +15°C° 0 mm 2 m/S 707 mmHg 71%
06:00 +16°C° 0 mm 2 m/S 707 mmHg 65%
07:00 +18°C° 0 mm 2 m/S 708 mmHg 60%
08:00 +19°C° 0 mm 2 m/S 708 mmHg 55%
09:00 +20°C° 0 mm 2 m/S 709 mmHg 50%
10:00 +22°C° 0 mm 3 m/S 709 mmHg 44%
11:00 +24°C° 0 mm 3 m/S 709 mmHg 39%
12:00 +24°C° 0 mm 3 m/S 709 mmHg 37%
13:00 +25°C° 0 mm 4 m/S 709 mmHg 34%
14:00 +25°C° 0 mm 4 m/S 709 mmHg 31%
15:00 +25°C° 0 mm 4 m/S 709 mmHg 33%
16:00 +25°C° 0 mm 4 m/S 709 mmHg 34%
17:00 +24°C° 0 mm 3 m/S 709 mmHg 35%
18:00 +21°C° 0 mm 3 m/S 709 mmHg 42%
19:00 +19°C° 0 mm 3 m/S 709 mmHg 48%
20:00 +17°C° 0 mm 2 m/S 709 mmHg 54%
21:00 +17°C° 0 mm 2 m/S 709 mmHg 55%
22:00 +16°C° 0 mm 2 m/S 709 mmHg 56%
23:00 +15°C° 0 mm 2 m/S 709 mmHg 57%

12 Mai, Mittwoch

Zeit Temperatur Niederschläge Wind Luftdruck Luftfeuchtigkeit
00:00 +15°C° 0 mm 2 m/S 708 mmHg 57%
01:00 +15°C° 0 mm 2 m/S 708 mmHg 58%
02:00 +15°C° 0 mm 2 m/S 708 mmHg 59%
03:00 +14°C° 0 mm 2 m/S 708 mmHg 59%
04:00 +14°C° 0 mm 2 m/S 708 mmHg 60%
05:00 +14°C° 0 mm 2 m/S 708 mmHg 61%
06:00 +16°C° 0 mm 1 m/S 708 mmHg 56%
07:00 +19°C° 0 mm 1 m/S 709 mmHg 51%
08:00 +21°C° 0 mm 1 m/S 709 mmHg 46%
09:00 +22°C° 0 mm 1 m/S 709 mmHg 42%
10:00 +24°C° 0 mm 2 m/S 709 mmHg 38%
11:00 +25°C° 0 mm 2 m/S 709 mmHg 34%
12:00 +26°C° 0 mm 2 m/S 709 mmHg 32%
13:00 +26°C° 0 mm 1 m/S 709 mmHg 30%
14:00 +27°C° 0 mm 1 m/S 708 mmHg 28%
15:00 +27°C° 0 mm 2 m/S 708 mmHg 31%
16:00 +27°C° 0 mm 2 m/S 708 mmHg 33%
17:00 +27°C° 0 mm 3 m/S 708 mmHg 36%
18:00 +24°C° 0 mm 3 m/S 707 mmHg 45%
19:00 +21°C° 0 mm 3 m/S 707 mmHg 54%
20:00 +19°C° 0 mm 3 m/S 707 mmHg 63%
21:00 +18°C° 0 mm 3 m/S 706 mmHg 63%
22:00 +17°C° 0 mm 2 m/S 706 mmHg 63%
23:00 +16°C° 0 mm 2 m/S 706 mmHg 63%

13 Mai, Donnerstag

Zeit Temperatur Niederschläge Wind Luftdruck Luftfeuchtigkeit
00:00 +16°C° 0 mm 2 m/S 706 mmHg 62%
01:00 +16°C° 0 mm 2 m/S 706 mmHg 61%
02:00 +16°C° 0 mm 2 m/S 705 mmHg 60%
03:00 +16°C° 0 mm 2 m/S 705 mmHg 60%
04:00 +16°C° 0 mm 2 m/S 705 mmHg 59%
05:00 +16°C° 0 mm 2 m/S 705 mmHg 58%
06:00 +18°C° 0 mm 2 m/S 706 mmHg 54%
07:00 +20°C° 0 mm 1 m/S 706 mmHg 50%
08:00 +22°C° 0 mm 1 m/S 707 mmHg 47%
09:00 +23°C° 0 mm 1 m/S 707 mmHg 44%
10:00 +24°C° 0 mm 2 m/S 707 mmHg 41%
11:00 +26°C° 0 mm 2 m/S 707 mmHg 39%
12:00 +26°C° 0 mm 2 m/S 707 mmHg 37%
13:00 +27°C° 0 mm 3 m/S 707 mmHg 35%
14:00 +27°C° 0 mm 3 m/S 707 mmHg 34%
15:00 +27°C° 0 mm 3 m/S 707 mmHg 36%
16:00 +26°C° 0 mm 4 m/S 707 mmHg 38%
17:00 +26°C° 0 mm 5 m/S 707 mmHg 40%
18:00 +23°C° 0 mm 4 m/S 706 mmHg 46%
19:00 +20°C° 0 mm 4 m/S 706 mmHg 52%
20:00 +18°C° 0 mm 3 m/S 706 mmHg 58%
21:00 +17°C° 0 mm 3 m/S 706 mmHg 59%
22:00 +17°C° 0 mm 2 m/S 705 mmHg 59%
23:00 +16°C° 0 mm 2 m/S 705 mmHg 60%
Mehr zeigen

Wir brauchen deine Erlaubnis

Meteoprog und unser Service Anbieter werden persönliche Daten aufbewahren, so wie Cookies, Geräte Bezeichnung oder ähnliche Technologien von deinem Gerät und Prozess, so wie Persönliche Daten Inhalte und Werbungen, genauso wie social Media und den Verkehr zu analysieren.

  • Aufbewahrung und/oder Zugang zu deiner Geräte Informationen.

    Cookies, Geräte Bezeichnung oder andere Informationen, können aufbewahrt oder Zugang zu deinem Gerät erhalten, für den Grund, der oben angegeben wird.

  • Personalisierte Werbung und Inhalte, Messungen, Einblick in das Publikum und Produkt Entwicklung.

    Werbungen und Inhalte können personalisiert werden, basierend auf ein Profil. Mehr Daten können besser personalisierte Werbungen und Inhalte hinzufügen. Werbung und Inhalte können gezeigt und gemessen werden. Einblicke über das Publikum, welche die Werbung gesehen haben und den Inhalt, können abgeleitet werden. So wie Daten können genutzt werden, um es zu verbessern oder die Benutzer Erfahrung zu verbessern das System und die Software.

Wenn du “Ich stimme zu” klickst, erlaubst du uns, die Cookies zu benutzen die Geräte Bezeichnung, den Web oder ähnliche Technologien zu benutzen. Deine Settings, können in deinem Gerät bei deinem Browser geändert werden.

Für den bestimmten Zweck, berechtigten Interessen beruhen darauf, mehr als auf den Inhalt. Du kannst mehr darüber in unseren Privaten und Cookie Politik lesen.